Location: *
(32.3300°N, 34.8500°E)
Time: 06:55:03
(UTC+00:00)

Cosmos 44 - Pass Details

Date: 22 October 2019
Orbit: 593 x 769 km, 65.1° (Epoch: 21 November)

Event Time Altitude Azimuth Distance (km) Brightness Sun altitude
Exits shadow 02:08:06 62° 222° (SW) 667 2.9 -22.0°
Drops below altitude 10° 02:12:06 10° 164° (SSE) 1,928 5.8 -21.2°
Sets 02:14:22 0° 161° (SSE) 2,840 6.7 -20.7°
